Wind_Speed
16 17 18 18 19 20 20 20 20 19 19 20 20 19 19 19 18 18 17 17 16 16 16 17 18 19 19 20 19 18 17 17 17 17 16 14 14 13 13 13 13 12 12 12 12 12 12 12 13 13 13 13 13 13 12 12 11 11 11 10 10 9 9 8 7 7 6 5 5 4 2 1 1 0 1 1 2 1 1 1 2 2 3 3 3
15 16 17 18 19 20 21 21 21 20 20 21 20 20 19 18 18 17 17 16 15 15 15 17 18 18 19 20 19 18 18 18 18 18 17 15 14 13 13 14 13 13 12 12 12 12 12 12 13 13 13 13 13 12 12 11 11 10 10 9 8 8 8 7 7 6 5 4 4 2 2 1 1 1 1 2 2 2 1 1 2 2 2 3 3
14 15 18 19 20 20 21 21 20 20 20 21 21 20 19 18 17 16 16 15 14 14 15 16 17 18 19 20 20 19 19 19 19 19 18 16 14 13 14 14 14 13 13 12 12 12 12 12 12 12 12 12 12 12 11 11 10 9 8 8 7 7 7 7 6 5 5 4 3 2 1 1 1 1 2 2 2 2 2 2 2 2 2 3 3
15 17 18 19 20 20 20 20 19 19 20 20 21 20 19 18 17 16 14 14 13 13 14 15 17 18 19 20 20 20 20 20 21 21 20 17 14 13 14 14 14 14 13 12 12 12 12 12 12 12 12 12 11 10 10 9 8 8 7 6 6 6 6 6 6 6 5 4 3 2 1 1 2 2 2 3 3 3 2 2 2 2 2 2 3
17 18 18 19 20 19 19 18 18 18 19 20 20 20 19 17 16 15 14 13 13 13 13 14 16 17 19 20 21 21 21 22 23 22 21 18 14 13 13 14 14 13 12 12 12 12 12 12 12 12 12 11 10 10 9 8 7 6 6 5 6 6 6 6 6 5 4 3 3 2 2 1 2 2 3 3 3 3 3 3 2 2 2 3 3
17 18 18 19 19 19 18 18 17 18 18 19 19 19 18 17 16 15 13 12 12 12 13 14 15 17 19 20 21 22 23 23 24 23 22 19 15 13 13 13 13 12 12 12 12 12 12 13 13 12 11 11 10 10 9 8 7 5 5 5 5 6 6 6 6 5 4 3 3 3 2 2 1 2 2 3 4 4 4 3 3 3 3 3 3
17 17 17 18 18 18 18 17 17 18 18 19 19 19 18 17 16 14 13 12 12 12 12 13 15 17 18 20 21 23 24 24 24 24 22 20 15 12 12 12 12 12 12 13 13 13 13 13 13 12 11 10 10 9 9 8 6 5 4 4 4 5 6 7 6 6 4 4 4 4 4 3 2 2 2 3 4 4 4 4 4 3 3 4 4
17 16 16 16 16 17 17 17 17 17 18 19 18 18 18 16 15 14 13 12 11 11 12 13 15 17 18 20 21 22 24 25 25 24 23 21 16 12 12 12 12 12 12 13 14 13 13 13 13 12 11 10 9 9 8 7 6 5 4 4 4 4 5 6 6 6 5 4 3 3 3 3 3 3 3 3 4 5 5 4 4 4 4 4 4
16 15 14 14 14 15 15 16 16 17 18 18 18 18 17 15 14 13 13 12 11 11 12 13 15 16 18 20 21 22 24 25 25 24 23 21 18 12 11 11 12 12 12 13 14 14 13 13 13 12 10 9 8 7 7 6 6 5 4 4 3 3 4 5 5 5 5 3 2 2 2 3 3 3 3 4 4 5 5 5 5 5 4 4 4
16 15 13 13 13 14 14 15 16 16 17 18 17 17 16 15 13 13 13 12 12 12 12 13 15 16 18 19 21 22 24 26 25 25 23 22 19 13 11 11 13 12 12 14 15 14 14 14 13 11 9 7 6 5 5 5 6 6 5 5 4 3 3 3 4 5 4 3 2 1 1 2 2 2 3 4 4 5 5 5 5 5 5 4 5
15 14 14 13 13 14 14 14 15 16 16 17 17 17 16 14 13 13 13 12 12 12 13 14 15 16 18 19 21 22 24 26 26 25 24 22 19 13 10 11 13 13 13 14 15 14 14 14 13 11 9 6 4 3 3 4 6 5 5 4 3 2 2 3 3 4 4 3 2 1 1 1 2 2 3 4 5 5 6 6 6 5 5 5 5
15 14 14 14 14 14 14 14 15 15 16 16 16 16 16 14 13 13 13 12 13 13 13 14 16 17 18 19 21 23 24 26 26 25 24 22 19 14 11 11 12 13 13 15 16 14 14 14 13 11 9 7 5 3 3 3 5 5 4 4 4 3 2 2 2 3 3 3 2 1 1 2 2 3 4 5 5 6 6 6 6 6 6 6 6
16 16 16 16 16 16 15 14 14 15 15 15 16 16 16 15 14 13 12 13 13 14 15 16 17 18 18 20 21 23 24 26 26 24 23 21 19 14 11 11 12 12 13 15 16 15 14 14 13 11 10 8 6 5 4 3 4 4 4 5 5 3 3 2 2 2 3 3 3 2 2 3 4 4 5 5 6 6 6 7 7 7 7 7 7
17 17 17 17 17 16 16 15 15 14 15 15 16 16 16 15 14 13 13 13 14 15 16 17 18 19 19 20 22 23 24 26 26 24 22 21 18 14 11 11 12 12 13 15 16 15 14 14 13 12 10 9 8 7 5 3 3 3 3 4 5 4 3 3 3 3 3 4 3 3 3 4 5 5 6 6 7 7 7 7 7 7 7 7 7
17 17 17 18 18 17 16 16 15 15 15 15 16 16 16 15 14 13 14 14 15 16 17 18 19 20 20 21 23 24 25 26 26 24 22 20 17 14 11 11 12 12 13 15 16 16 15 14 13 12 11 10 8 7 6 5 3 2 3 3 4 4 4 3 3 3 3 4 4 4 4 5 6 6 7 7 7 7 7 8 8 8 8 8 8
17 16 17 17 18 18 17 16 15 15 14 15 15 16 16 15 14 14 15 16 16 17 18 20 20 21 21 22 24 25 26 27 26 24 22 19 16 14 11 11 12 12 13 15 16 16 15 14 14 13 12 10 8 7 7 5 4 2 2 3 4 4 4 4 4 4 4 4 4 5 5 6 6 7 7 7 7 8 8 8 8 9 9 9 9
17 16 17 18 19 19 18 16 15 14 14 14 15 15 15 15 15 16 16 16 17 18 20 20 21 21 22 23 25 27 28 28 27 24 22 19 16 13 11 11 11 12 13 15 16 15 15 14 14 13 13 11 8 7 7 6 4 3 3 4 5 5 5 5 5 5 5 5 5 5 6 6 7 7 7 8 8 8 8 8 9 9 10 10 9
18 18 18 18 19 18 17 15 14 14 14 14 15 15 15 16 16 17 17 17 18 20 20 21 22 23 23 25 27 28 29 29 27 25 23 19 16 13 11 11 11 12 13 14 15 15 14 14 14 13 13 11 8 7 7 6 6 5 4 5 6 6 6 7 7 7 7 7 6 6 6 7 7 8 8 8 9 8 8 9 9 10 10 10 10
21 21 20 20 19 18 16 14 14 14 15 15 15 16 16 16 17 17 18 19 20 21 21 22 23 24 25 26 28 30 30 29 27 25 22 18 17 14 11 11 11 12 13 14 14 14 13 13 14 14 13 12 9 8 7 6 6 6 5 6 7 7 7 7 8 8 8 8 8 8 7 7 8 8 9 9 9 9 9 10 10 10 11 11 10
23 23 23 21 19 18 16 15 15 15 16 16 16 16 17 17 18 18 19 20 21 21 21 22 24 25 27 28 30 31 30 29 28 25 21 18 17 15 12 11 11 12 13 14 14 12 12 12 13 14 14 12 10 9 7 6 6 6 7 7 8 8 8 8 8 8 8 8 8 8 8 8 8 9 9 10 10 10 10 10 11 11 11 11 11
25 25 25 23 21 19 17 16 16 17 17 16 17 17 18 18 19 19 20 21 21 21 21 22 25 27 29 30 31 31 30 29 28 24 21 19 18 16 13 12 12 12 13 14 13 11 11 11 12 14 14 13 11 10 8 6 6 6 6 7 8 7 7 7 7 7 7 8 8 8 8 8 8 9 9 10 10 10 11 11 12 12 12 11 11
24 24 26 25 22 20 19 19 18 17 17 18 18 19 19 20 20 20 21 21 21 20 21 23 26 29 31 32 31 29 28 29 27 23 19 18 18 17 14 13 13 12 13 14 12 10 9 10 11 13 14 13 12 10 7 6 6 5 5 6 7 6 6 6 7 7 7 8 8 8 8 7 8 8 9 10 10 11 11 12 12 12 12 12 12
23 24 26 26 23 21 20 20 19 18 18 19 19 20 21 20 20 20 20 20 20 21 23 25 27 29 32 33 31 28 27 28 25 21 19 18 18 17 15 14 14 13 14 13 12 10 8 8 9 11 13 14 13 10 7 7 7 5 4 5 5 5 5 5 5 6 7 8 9 9 9 9 9 10 11 11 11 11 11 12 12 13 13 12 12
26 26 26 25 24 20 19 18 17 17 18 19 20 20 21 20 20 20 20 21 22 23 25 26 28 29 31 32 30 27 26 26 23 20 19 18 17 17 16 15 14 14 14 13 11 9 8 7 8 10 12 14 14 11 8 8 8 7 6 5 5 5 6 7 7 8 9 10 11 11 11 12 13 13 13 13 13 13 12 12 12 13 13 13 12
29 29 28 27 25 21 19 18 17 17 18 19 19 20 20 20 20 21 22 23 24 25 26 27 28 29 30 31 29 26 25 25 23 21 19 18 17 17 16 15 15 15 14 13 11 9 8 7 7 9 11 13 13 11 9 9 9 9 8 7 6 5 6 7 9 10 12 12 12 11 11 12 13 14 15 15 15 15 14 14 13 13 13 13 13
28 25 26 24 22 22 22 21 19 18 18 18 19 20 21 21 22 23 24 25 25 25 26 27 28 28 29 29 27 25 23 23 23 22 19 19 18 18 17 16 15 15 14 13 11 10 8 7 7 8 10 11 12 10 9 9 10 10 9 7 5 5 5 6 7 9 10 11 10 10 11 12 13 13 14 15 15 16 16 16 15 14 14 13 13
30 25 26 24 22 25 25 24 22 20 19 21 22 23 24 24 24 25 26 25 25 26 26 26 26 27 28 28 25 22 21 20 20 19 19 20 19 18 17 16 16 15 14 14 13 11 8 7 7 8 9 11 11 10 9 10 10 10 9 7 5 5 6 6 7 8 9 9 10 10 12 13 13 14 15 16 16 16 17 17 16 16 15 14 13
35 31 29 28 26 27 28 26 25 23 23 24 25 26 26 26 26 27 26 25 25 25 25 25 26 27 27 26 22 19 19 18 18 19 20 21 20 19 18 16 16 15 14 15 14 10 7 6 7 8 9 11 10 9 9 9 10 10 9 7 6 7 7 7 7 8 8 8 9 10 11 13 13 14 15 15 15 16 16 17 17 17 16 16 15
37 33 28 26 25 26 28 30 30 27 27 28 28 28 28 28 28 28 27 26 26 25 25 26 27 26 24 22 19 17 19 19 19 19 20 20 19 19 18 16 16 15 15 15 12 8 6 7 8 8 9 10 9 9 9 9 9 10 9 8 8 8 8 8 8 8 9 9 9 10 11 13 14 14 14 14 14 15 16 17 17 17 17 16 16
35 33 26 23 24 25 26 29 32 30 29 30 30 31 30 29 30 29 28 27 26 26 26 27 27 25 21 19 17 18 19 20 20 20 20 19 18 18 17 16 15 15 15 15 11 8 7 8 8 7 8 9 8 8 9 9 9 10 9 9 9 9 9 9 9 9 9 9 10 10 12 13 13 13 12 12 13 14 15 15 15 15 16 15 15
34 32 24 19 21 23 22 25 30 32 31 30 30 30 30 29 29 28 27 26 25 26 26 27 27 23 20 18 18 20 20 21 21 21 21 20 19 18 17 16 15 15 15 15 12 10 9 8 9 8 8 9 8 8 8 8 9 9 9 9 9 9 10 9 9 8 9 10 10 11 12 12 12 12 11 11 12 12 13 13 13 14 14 14 14
24 22 18 16 17 20 21 22 26 31 33 30 27 28 29 28 27 26 27 26 25 24 24 24 24 22 20 19 20 21 20 21 22 22 22 22 20 19 17 16 16 16 16 16 14 11 9 8 9 9 9 9 8 8 8 8 9 9 9 9 9 10 10 10 9 8 9 9 10 11 12 11 11 11 11 10 11 11 11 11 11 12 13 13 13
13 10 9 12 14 17 20 20 22 27 31 31 28 29 30 28 26 26 27 27 25 24 23 22 22 23 23 21 20 20 20 22 22 22 22 21 19 18 17 16 16 16 16 16 15 12 10 9 9 9 9 9 9 8 7 8 9 9 10 10 10 10 10 10 9 8 9 9 10 11 11 11 10 11 10 10 10 10 10 10 9 10 11 11 12
18 16 16 14 15 17 18 18 20 24 29 30 29 29 29 27 26 28 28 27 25 25 24 23 23 25 26 24 22 21 22 22 22 21 20 19 18 16 16 17 16 15 16 16 16 14 11 9 8 9 9 9 9 8 7 7 8 9 10 10 11 11 11 10 9 8 8 9 10 10 10 10 10 10 10 9 10 10 10 9 8 9 9 10 10
24 22 21 19 18 17 16 13 13 18 22 25 25 26 26 26 27 29 30 28 26 25 25 25 24 26 28 26 24 23 22 22 22 20 18 17 16 16 16 18 17 16 16 17 17 15 12 9 8 8 9 10 10 10 9 9 9 10 10 10 11 11 12 11 9 9 9 9 10 10 9 9 10 10 9 9 11 11 9 8 7 7 8 8 8
25 21 21 22 19 16 15 13 10 12 15 18 21 22 23 25 25 25 26 26 26 25 25 26 26 27 28 27 24 22 21 21 21 20 18 17 16 16 17 18 17 17 16 15 15 15 14 12 11 10 10 11 12 12 12 11 11 11 11 11 11 12 12 11 10 9 9 9 9 9 9 9 10 9 9 10 11 11 9 8 7 7 7 7 7
20 18 19 21 19 15 17 18 15 13 13 16 18 20 22 23 23 22 22 23 25 25 25 26 27 28 28 26 23 22 21 21 22 21 18 18 16 16 17 17 17 17 15 13 13 15 15 13 13 12 10 10 11 12 13 12 11 11 11 11 12 12 12 11 10 9 8 9 9 9 10 10 10 9 9 10 10 10 10 8 7 6 6 6 6
16 16 18 20 20 16 17 20 20 17 14 16 18 18 20 23 23 23 22 23 25 24 26 27 27 28 27 24 22 21 21 23 23 21 19 17 16 15 16 16 16 16 14 13 12 13 13 13 12 12 11 10 10 11 12 12 11 10 10 11 12 12 12 11 11 9 8 9 10 9 10 10 10 9 9 9 10 11 10 9 8 7 6 6 6
14 15 17 19 20 18 16 18 21 20 17 18 18 15 17 21 23 24 24 23 25 25 26 28 27 26 24 21 20 20 21 23 24 22 19 18 16 15 16 16 16 15 14 13 12 11 11 12 12 12 13 12 11 11 11 11 11 10 11 12 12 11 11 11 11 10 9 9 9 9 9 9 9 9 9 10 10 10 10 8 7 7 7 7 6
15 16 16 18 20 20 18 18 20 20 19 20 20 17 18 22 24 24 24 22 24 25 25 29 28 23 22 22 22 22 21 22 23 22 20 18 16 15 16 17 17 16 15 14 12 11 11 12 12 12 12 12 12 11 11 11 11 12 12 12 12 11 11 11 11 11 10 9 9 9 9 9 9 10 11 11 10 9 9 7 7 7 7 7 7
16 17 17 19 20 21 21 20 20 20 20 21 22 22 22 24 25 21 22 22 23 25 25 28 27 21 21 24 23 22 21 22 22 22 20 19 17 17 17 18 18 17 16 15 13 12 13 13 13 12 11 12 12 11 11 12 12 13 13 12 12 11 11 11 11 11 10 10 10 9 9 9 10 12 12 10 10 9 8 7 7 7 7 8 8
17 17 18 19 21 22 23 23 23 22 20 21 23 23 21 22 22 16 17 22 23 26 27 29 26 21 22 23 22 20 20 21 22 21 20 19 19 18 18 18 18 18 16 15 14 14 15 15 14 13 13 13 12 11 12 13 13 13 13 13 12 11 11 11 11 11 11 10 10 9 9 10 11 12 11 10 9 8 7 7 6 6 7 8 8
18 18 18 20 21 23 24 24 25 24 22 21 23 23 20 22 22 16 14 19 23 26 29 28 24 22 23 22 21 20 20 21 21 20 20 19 19 18 17 17 17 18 17 16 15 15 16 16 15 14 14 14 13 12 13 14 14 14 13 13 12 12 12 11 12 12 12 11 10 10 9 10 10 10 10 9 8 7 7 6 5 4 5 6 7
18 18 18 20 21 23 25 24 24 24 23 21 22 22 22 23 23 18 14 16 20 24 25 23 21 22 23 22 20 20 19 20 21 20 21 20 18 16 15 16 18 20 20 17 16 16 16 16 16 15 15 14 13 13 14 15 15 14 13 13 13 13 12 12 12 13 12 11 11 10 10 9 9 10 10 10 9 8 7 6 5 4 5 5 5
20 19 19 20 21 23 25 25 24 23 21 18 18 21 24 26 23 18 16 15 18 23 22 21 21 22 23 22 21 19 18 19 20 20 21 21 19 16 16 16 18 21 22 19 17 17 17 17 16 16 15 14 13 14 15 16 15 14 14 14 14 13 12 13 13 13 13 12 12 11 10 10 10 11 12 11 11 10 9 8 7 7 6 6 5
22 21 21 21 21 23 25 26 24 22 18 14 14 19 23 26 21 15 15 15 19 23 22 22 21 21 22 22 20 19 18 19 20 20 21 21 20 19 18 18 20 23 24 21 19 18 18 17 16 15 15 14 14 15 15 16 15 15 14 14 14 13 13 13 14 14 14 13 12 11 11 11 11 12 13 13 12 11 10 10 9 9 8 7 7
23 22 22 22 22 23 24 25 24 21 16 13 14 16 19 23 20 16 17 14 18 21 20 20 19 20 22 21 19 19 19 20 20 21 21 21 21 20 20 20 21 24 25 23 20 19 18 18 16 15 15 15 15 16 16 16 16 15 14 14 14 14 14 14 15 15 15 14 13 12 12 12 12 14 14 13 12 13 13 12 11 11 10 10 9
23 23 22 22 22 22 22 23 23 21 17 14 15 17 18 20 19 18 17 13 13 17 19 19 19 21 22 21 20 21 21 20 20 21 21 21 21 21 21 21 23 25 25 24 21 20 19 18 17 17 16 16 16 17 17 18 17 15 15 15 15 15 15 16 16 16 15 15 14 13 13 13 13 14 15 14 13 14 14 14 13 12 12 11 11
22 22 21 20 21 20 19 19 20 20 17 14 14 15 17 18 16 15 13 12 15 18 21 21 21 22 23 23 23 22 22 21 20 20 21 22 22 22 22 23 24 25 25 24 22 20 20 19 19 18 18 18 18 19 19 18 16 16 16 16 16 16 16 17 17 16 16 16 14 14 14 14 14 15 16 15 15 15 15 15 14 13 13 12 12
24 22 19 18 19 19 18 16 16 16 14 11 11 12 14 16 15 13 12 13 15 17 21 23 23 22 23 24 24 23 23 22 21 21 22 22 23 23 23 24 25 25 25 24 23 22 21 20 20 19 20 20 20 20 19 17 16 16 17 16 16 16 17 18 18 17 17 16 16 16 15 15 16 16 16 16 16 16 16 16 15 14 13 13 12
25 21 18 18 18 19 18 16 16 16 14 12 11 13 14 15 14 12 11 14 16 17 20 24 26 24 24 25 25 23 23 23 23 23 23 23 23 24 24 24 25 25 25 24 24 23 21 20 20 20 21 22 21 20 19 17 17 17 17 17 16 17 18 19 19 18 17 17 17 17 17 17 17 18 18 18 17 17 17 16 16 15 14 13 13
Wind_Direction
300 303 303 304 306 307 309 310 311 310 308 307 306 306 306 307 309 311 315 319 322 326 330 333 333 334 338 340 342 342 340 340 341 341 342 344 347 349 351 352 351 352 355 357 357 356 351 347 343 341 339 336 333 329 329 330 327 327 326 327 327 326 329 332 338 354 2 0 357 338 321 295 275 251 223 258 266 271 286 304 328 343 347 346 348
296 297 299 300 303 306 307 309 309 308 306 305 305 305 305 306 309 311 313 317 320 325 329 333 334 335 338 339 340 340 338 339 341 343 345 347 348 349 351 352 352 354 356 358 356 352 348 345 343 341 338 334 329 327 328 329 330 332 332 330 330 329 331 336 345 360 5 3 4 345 315 285 275 259 243 266 267 262 259 284 307 331 344 346 354
290 292 295 298 301 303 304 305 305 304 304 303 303 304 305 305 306 308 309 313 319 325 330 334 334 335 337 337 338 338 338 339 342 345 347 347 348 349 351 352 351 353 355 356 352 348 346 343 342 340 336 331 328 328 330 331 332 331 330 329 331 334 337 343 351 359 1 1 3 355 325 307 292 268 261 267 269 262 255 270 291 320 346 348 354
292 294 296 297 299 300 300 300 301 301 300 300 300 301 303 303 302 303 305 311 318 325 330 334 333 334 335 335 335 337 339 340 342 346 348 348 348 350 351 352 351 352 352 351 347 345 344 343 341 338 333 329 327 329 330 331 329 327 330 334 338 344 346 346 351 355 356 359 360 356 347 313 282 267 266 265 265 261 263 274 285 309 334 340 346
298 297 297 297 296 296 296 296 297 297 296 296 296 297 299 298 298 299 303 310 318 324 329 332 331 331 331 332 334 337 340 341 343 345 348 348 348 350 352 352 350 349 348 345 343 342 342 342 339 335 331 328 329 329 330 329 327 330 339 348 353 355 353 351 352 353 356 4 7 1 351 317 278 269 268 269 271 271 277 283 287 303 321 328 336
301 299 296 295 294 293 292 292 293 292 292 293 294 295 296 296 297 298 302 309 315 321 326 328 329 328 329 331 333 336 340 341 343 344 346 348 347 350 353 352 349 345 343 342 340 340 341 339 336 334 331 330 331 331 332 331 330 338 350 1 5 2 357 354 351 352 1 14 19 15 4 350 313 283 275 279 284 284 284 285 286 296 311 320 325
300 297 294 293 292 290 289 288 288 288 289 290 292 293 292 293 296 298 300 304 310 317 322 325 326 326 327 329 331 335 338 340 341 342 344 346 347 350 355 352 345 342 342 339 338 338 339 336 334 334 333 333 334 335 337 337 338 347 358 6 7 6 2 359 355 354 359 12 20 20 14 2 338 311 294 291 291 290 288 285 286 293 306 312 317
296 292 290 289 287 286 286 285 284 284 285 286 287 288 288 288 292 295 295 298 306 313 318 322 324 323 324 327 330 333 335 338 340 341 342 344 346 349 355 351 341 341 341 339 337 337 335 333 333 334 334 337 341 342 346 347 348 351 356 3 7 7 5 360 356 353 352 1 17 23 18 4 348 330 313 302 296 292 290 290 288 292 299 303 307
293 290 288 284 281 281 280 279 279 279 280 282 283 284 284 283 286 289 290 294 303 311 315 320 321 320 321 324 327 330 332 335 338 340 340 342 345 349 354 348 339 340 340 338 337 336 332 330 333 336 337 343 349 351 355 359 357 356 356 357 1 1 358 355 353 351 347 343 354 17 21 8 351 332 314 303 297 292 290 289 286 286 290 294 298
295 292 286 280 276 275 274 274 274 274 276 278 280 281 279 278 278 281 285 292 301 307 313 316 316 315 318 321 324 327 329 333 336 339 338 339 344 348 349 344 340 338 337 339 340 335 329 328 333 335 338 346 353 352 355 2 1 360 360 355 348 338 334 342 347 345 338 328 325 346 13 5 347 323 302 292 289 286 282 281 282 283 286 289 290
297 292 286 279 275 272 270 269 269 270 272 274 276 275 273 271 270 274 281 291 299 305 309 310 310 311 314 317 321 323 326 330 334 337 335 335 343 347 343 342 340 337 335 339 342 336 327 326 330 334 333 334 337 330 330 353 3 5 4 359 344 325 312 321 335 337 329 315 294 282 342 339 324 302 283 278 280 281 279 278 280 283 284 283 282
297 292 286 281 277 273 270 267 265 266 269 271 272 270 267 264 264 270 279 290 298 302 304 304 305 307 311 315 317 320 322 326 331 333 332 332 340 345 338 339 338 336 335 338 342 337 325 323 328 331 329 323 313 306 310 339 3 10 14 14 3 349 337 324 326 332 327 302 272 248 271 303 301 292 280 275 277 280 280 278 278 280 280 280 280
297 294 290 284 280 275 271 266 264 264 267 269 268 265 261 260 262 268 278 288 296 299 298 299 301 303 308 312 313 316 319 323 327 329 329 329 337 341 334 335 336 334 334 336 341 336 323 321 326 329 326 317 302 293 302 322 354 11 24 27 16 360 353 350 340 339 332 307 282 272 289 298 292 285 277 272 271 273 275 275 275 276 277 279 280
299 297 292 287 282 277 272 266 264 265 266 267 265 262 259 259 261 268 277 286 293 296 294 295 297 300 305 308 309 313 316 319 321 324 325 325 333 336 329 329 332 331 332 334 339 335 323 319 325 327 322 313 302 291 289 295 325 1 22 30 19 1 347 346 341 336 332 314 298 293 293 289 279 272 270 269 271 272 275 275 276 277 279 279 276
298 296 293 288 282 277 271 265 264 264 265 266 264 261 260 261 264 270 277 284 291 292 290 292 294 297 302 304 306 309 312 314 316 319 320 321 328 330 323 323 328 329 330 332 335 333 322 320 325 324 317 309 303 296 288 278 282 326 358 9 2 351 340 333 325 317 315 307 298 291 284 277 271 268 269 271 273 274 276 276 276 276 277 276 273
296 295 292 287 282 276 270 265 263 264 264 264 264 263 263 265 267 272 276 282 288 287 287 289 291 295 299 301 303 306 308 310 311 313 315 317 322 323 316 316 323 327 327 330 332 330 322 321 326 322 313 304 302 300 288 276 269 286 324 340 335 329 324 319 308 298 293 290 287 284 280 276 274 272 272 272 273 273 273 274 275 275 274 273 272
294 294 291 287 282 276 270 266 264 264 263 262 263 263 264 265 267 269 274 280 284 283 284 287 289 293 296 298 300 302 304 305 306 308 311 314 316 313 308 309 318 323 325 327 328 327 323 322 324 319 307 301 303 299 287 275 267 270 297 327 333 322 308 304 298 289 279 273 274 276 276 276 275 274 272 269 268 269 271 274 275 275 273 272 272
294 293 290 285 279 274 268 266 264 262 262 260 258 258 259 261 264 268 274 278 278 277 280 284 287 289 291 294 296 298 300 301 302 304 306 309 309 305 300 303 312 319 322 324 325 325 323 323 321 315 303 299 303 296 285 273 262 262 280 311 327 319 303 296 291 282 273 267 265 266 269 271 273 273 272 271 268 268 270 272 274 274 274 274 274
291 291 288 282 274 268 264 260 257 257 257 255 253 253 255 259 263 268 271 271 270 273 278 282 284 286 288 291 294 295 297 298 299 301 301 300 301 299 293 297 306 313 317 320 323 324 325 324 318 311 301 298 300 291 282 271 261 259 271 294 309 307 299 294 287 278 270 268 267 265 264 266 269 272 273 274 274 272 270 270 270 271 273 274 275
287 286 284 280 270 262 257 251 248 249 250 250 249 250 253 257 260 262 263 263 266 271 278 281 284 285 287 289 291 293 294 295 295 296 295 293 295 294 288 291 299 306 313 317 320 324 328 325 315 306 298 296 296 287 281 271 260 260 271 286 294 294 293 292 286 275 270 271 271 268 266 267 268 271 273 276 277 277 274 272 270 269 270 271 273
287 285 282 277 269 261 252 244 241 242 243 243 244 245 248 250 252 255 257 260 266 273 279 282 284 285 287 288 289 291 294 294 292 291 288 286 291 291 285 286 293 300 308 314 318 322 327 325 313 303 296 293 289 284 285 279 265 263 271 282 287 288 288 285 279 269 268 271 269 266 265 266 270 273 276 278 278 279 278 275 272 269 268 268 270
287 286 279 270 263 258 250 241 236 234 235 236 239 241 243 246 248 252 256 261 268 275 280 283 285 286 286 287 288 291 293 291 290 287 281 281 287 287 282 282 288 295 303 309 314 317 321 321 312 300 294 290 284 282 288 286 280 277 269 275 283 286 285 278 273 264 264 269 267 266 265 266 273 279 281 282 281 280 280 278 276 273 270 269 269
282 283 275 266 257 249 242 236 231 228 229 232 235 239 241 244 248 252 257 264 271 276 281 283 284 284 285 286 288 291 290 287 286 281 274 275 281 281 277 278 284 292 299 305 309 311 312 316 312 300 292 287 281 281 286 288 289 289 278 272 273 282 280 271 271 272 272 272 272 272 274 277 283 286 285 284 284 283 281 279 277 276 274 272 272
282 280 273 265 256 244 237 233 228 227 229 232 235 239 243 245 249 255 261 267 272 275 279 280 281 282 283 285 288 291 287 282 279 273 267 269 274 275 273 273 281 288 296 302 305 305 307 315 314 300 289 281 278 280 282 287 291 292 292 282 262 270 278 268 268 274 276 275 275 278 281 284 287 289 289 286 284 283 281 279 276 274 274 274 274
283 273 270 264 255 246 241 236 231 230 232 235 239 244 246 248 251 257 261 265 269 273 276 277 278 279 281 284 289 289 282 277 275 272 265 263 270 273 269 270 278 286 294 298 298 296 301 314 313 300 286 276 274 275 279 286 292 295 298 290 267 269 279 273 270 274 279 281 284 287 289 289 289 289 290 288 284 280 279 278 275 271 271 272 273
287 276 273 270 259 255 251 245 238 235 238 241 245 249 249 250 253 257 260 264 268 272 274 274 274 277 279 283 287 284 277 272 272 273 265 260 268 270 266 269 276 283 291 293 288 286 295 309 307 295 281 271 268 268 273 282 288 295 295 289 276 268 272 276 278 284 287 290 294 297 298 299 297 295 292 290 286 281 277 276 275 271 267 267 268
297 291 284 286 276 266 263 257 246 238 240 245 247 249 249 251 254 256 259 263 268 272 272 271 272 274 278 282 284 278 270 266 266 268 263 261 265 264 261 266 273 281 287 287 283 282 292 302 297 289 276 266 261 261 266 273 282 290 286 282 279 271 276 283 288 294 296 296 296 299 303 304 303 301 297 293 290 285 280 275 273 270 266 262 261
297 296 292 295 286 271 266 256 243 239 240 243 247 249 252 254 256 258 260 264 269 270 269 270 272 275 279 282 279 269 262 259 260 262 261 261 262 258 258 264 271 279 284 282 279 280 287 290 286 280 269 261 257 256 260 266 277 282 276 276 281 282 286 289 289 295 300 300 300 302 304 304 303 301 297 294 291 288 283 277 272 268 264 261 258
293 297 299 299 291 281 274 259 243 239 239 240 244 248 252 254 256 259 261 265 269 269 268 270 273 276 281 281 273 262 255 254 259 263 262 263 259 254 257 262 268 276 280 278 274 274 274 273 275 271 264 259 255 253 255 263 274 273 269 271 279 286 290 289 290 294 301 304 305 307 306 306 304 300 296 294 293 291 287 280 272 266 263 261 259
288 292 294 293 290 286 283 270 254 245 244 246 245 246 249 251 254 257 259 263 265 266 270 273 275 277 277 273 263 257 255 256 258 261 262 263 257 253 256 259 265 271 272 271 267 261 261 262 266 264 260 258 249 246 252 264 271 267 267 271 274 285 291 289 291 297 303 307 307 308 309 308 306 304 301 299 298 297 293 284 272 264 261 259 259
281 281 279 277 279 277 278 275 261 252 254 255 252 250 253 256 256 257 259 261 261 263 269 272 275 275 269 263 258 255 257 258 258 258 258 260 256 253 254 256 261 265 264 264 261 257 257 259 261 259 256 255 246 241 249 264 267 263 268 273 274 284 290 290 294 302 307 307 306 309 311 310 308 308 308 306 303 301 299 290 274 263 258 256 256
272 269 266 264 266 265 267 269 262 258 258 257 256 257 262 264 261 260 262 261 260 263 265 266 269 267 260 259 258 257 257 257 258 258 257 258 255 250 251 255 259 259 260 261 260 257 254 253 254 254 253 253 249 244 248 259 259 258 266 275 280 285 288 289 293 300 304 304 307 312 313 310 308 310 312 311 306 302 301 293 277 263 257 255 255
281 280 288 277 268 266 267 271 271 267 261 256 259 264 267 266 260 261 262 260 259 259 258 258 262 262 259 258 257 256 256 256 259 259 259 258 251 245 247 253 255 255 258 260 259 254 247 244 247 251 255 256 256 251 251 256 252 253 266 276 282 284 283 285 289 295 299 304 310 314 313 309 308 310 312 313 310 303 299 293 279 264 256 255 254
284 300 312 296 279 275 273 274 273 270 262 256 259 265 268 265 260 261 260 258 257 255 254 255 257 260 263 261 258 258 258 259 260 259 258 253 243 240 245 249 250 251 255 257 255 246 237 236 240 247 254 257 258 256 255 256 250 252 264 272 277 281 281 282 285 290 296 304 311 315 315 310 308 309 308 312 313 306 299 294 284 269 258 254 252
274 291 298 293 286 278 274 275 270 266 260 255 258 264 269 270 269 267 260 255 254 252 252 254 255 259 263 263 260 260 260 262 262 259 253 243 238 240 245 248 248 248 252 254 248 236 229 233 238 246 252 254 256 257 258 261 258 255 260 267 273 279 281 281 282 286 293 302 310 316 316 310 307 306 306 311 312 307 299 291 281 268 257 251 246
278 284 281 280 282 274 268 271 265 257 255 256 261 266 271 273 272 267 257 251 252 252 252 255 257 258 261 261 260 259 261 264 260 255 246 237 236 241 246 248 247 249 249 247 240 228 229 239 242 246 253 255 255 256 261 264 260 253 253 261 270 276 278 277 278 282 289 299 308 312 312 307 305 304 307 316 315 310 302 289 277 265 254 246 239
280 275 267 268 273 267 257 255 253 251 255 264 272 277 277 275 271 264 255 250 250 250 250 254 256 256 257 258 259 260 263 264 257 250 241 233 236 244 248 246 245 248 243 235 229 225 232 241 241 243 250 256 255 253 258 259 251 246 249 257 265 271 275 274 273 277 285 297 305 307 307 305 302 301 308 320 321 316 309 293 281 266 251 243 232
272 269 266 266 270 269 255 248 248 249 257 275 289 292 287 282 274 266 260 253 248 247 248 250 252 254 255 254 257 260 262 261 253 245 237 231 236 244 246 244 245 245 235 226 224 225 234 239 238 241 246 252 253 252 253 248 241 243 251 257 262 268 272 271 271 275 283 295 301 303 305 304 302 303 310 319 320 317 312 297 282 265 248 239 230
272 272 271 272 274 274 266 255 251 252 260 279 293 301 301 298 286 271 265 258 251 250 250 249 251 251 249 248 250 253 256 257 249 242 236 233 236 240 242 244 245 239 228 223 222 229 237 238 240 244 244 247 251 253 246 237 237 246 254 259 263 266 269 271 272 275 282 291 296 298 303 303 302 306 314 317 315 314 311 297 276 257 243 236 232
283 281 279 278 278 279 276 266 258 255 259 274 283 288 298 305 300 280 262 256 251 248 249 250 250 248 243 243 244 245 246 246 242 238 236 236 237 239 242 242 241 234 226 221 223 234 239 235 239 243 241 242 246 247 238 232 238 247 255 259 261 264 267 268 269 273 279 285 289 292 297 298 297 303 310 312 312 312 311 301 274 255 242 234 231
285 283 284 283 284 283 282 277 270 262 260 270 277 281 289 297 304 289 258 250 247 243 246 247 247 245 242 243 245 244 241 235 232 232 233 236 235 234 238 238 234 231 224 219 222 235 237 233 236 239 238 239 242 239 233 232 237 245 251 254 258 262 264 265 266 270 276 281 285 287 291 293 293 299 304 304 304 307 311 309 287 263 244 236 233
287 285 286 287 289 288 287 285 282 278 273 276 279 282 289 289 297 299 265 251 245 241 242 243 245 248 244 242 243 243 241 234 229 230 233 235 233 230 232 234 232 230 222 214 222 234 235 232 234 237 238 240 240 234 231 232 236 243 249 252 257 261 261 260 263 268 272 278 283 284 288 291 293 297 298 294 295 304 312 315 305 279 252 242 243
290 288 287 289 290 289 290 289 289 291 290 292 293 289 290 286 289 299 281 258 248 242 237 237 243 246 242 240 242 242 239 234 229 230 233 233 232 230 227 228 230 228 219 213 220 229 229 229 233 237 238 239 239 235 232 233 237 242 248 253 257 259 259 258 261 264 269 276 279 280 284 288 290 292 289 285 286 297 308 311 311 299 270 256 258
293 294 292 291 291 289 290 290 289 292 294 300 305 297 288 287 290 290 276 258 247 239 232 234 241 241 238 237 239 240 234 228 226 226 229 229 231 233 227 224 226 223 216 214 220 226 226 226 231 234 234 235 237 236 234 237 240 243 247 252 256 258 259 260 261 263 267 272 274 276 281 284 284 279 276 278 280 285 292 292 291 293 288 277 270
303 303 300 295 292 290 290 290 290 292 298 306 311 302 292 296 301 288 272 262 241 230 228 232 238 239 236 233 234 235 228 224 224 223 225 227 228 232 233 228 223 219 217 218 223 226 226 227 229 231 231 233 235 235 237 241 244 245 247 252 255 258 260 260 260 261 264 268 271 275 280 282 278 270 268 272 275 274 275 276 275 279 283 278 271
311 308 303 296 291 288 286 288 290 295 306 317 312 302 297 304 310 296 286 272 229 220 228 234 239 239 232 230 231 228 224 225 226 225 226 229 229 230 232 229 220 217 220 224 227 227 227 229 231 231 231 232 234 237 242 246 247 247 249 254 258 260 261 259 259 259 262 265 268 273 277 280 277 270 267 269 272 268 265 265 265 269 271 266 261
311 309 304 298 290 286 284 286 289 291 299 308 303 299 299 304 305 295 298 280 224 218 234 240 243 239 230 230 230 227 225 225 225 227 229 231 233 232 231 226 217 216 221 226 228 227 228 231 233 231 231 233 237 240 244 246 248 249 252 255 258 260 260 259 257 258 261 264 268 272 276 279 278 273 269 268 267 264 262 263 263 265 264 259 255
307 306 303 301 294 287 285 287 288 286 287 293 293 292 292 299 303 295 294 284 248 239 240 239 239 234 228 227 227 227 229 227 223 225 230 233 234 234 231 223 215 216 220 224 226 227 229 232 234 233 234 236 239 241 243 246 249 252 255 256 259 261 261 260 259 259 261 264 268 272 275 278 277 275 273 269 263 259 260 263 265 267 265 260 258
302 299 297 298 294 289 288 290 289 284 285 287 285 285 284 290 302 301 287 272 267 257 239 232 233 230 226 224 224 226 227 229 226 224 229 232 233 234 230 223 218 218 219 220 223 227 229 233 235 236 237 238 240 241 243 246 251 255 257 259 261 264 264 262 260 259 260 263 267 270 273 275 275 273 273 270 265 260 259 261 264 266 264 261 260
295 288 286 289 290 289 286 286 286 285 288 286 273 274 279 283 291 297 283 257 255 255 239 230 230 230 229 226 227 227 225 227 228 226 228 231 234 234 229 224 221 220 218 219 223 226 230 234 236 238 239 240 241 243 246 248 252 257 259 261 262 264 265 262 260 260 261 263 266 268 271 273 274 273 270 267 264 261 259 259 263 265 261 258 258
290 284 290 293 290 290 282 274 275 281 289 287 269 263 268 274 278 280 274 254 247 248 239 231 227 227 229 231 233 231 227 228 229 227 229 232 234 231 226 222 220 219 220 222 225 228 230 234 236 240 242 243 245 246 248 250 253 258 261 262 262 262 262 262 261 261 262 264 266 268 271 273 275 274 270 266 262 261 259 259 261 261 258 256 256
Height
5868 5868 5868 5868 5868 5867 5867 5867 5866 5865 5865 5864 5864 5863 5863 5863 5863 5863 5863 5863 5862 5862 5862 5862 5861 5861 5861 5860 5859 5858 5857 5857 5856 5855 5854 5853 5852 5851 5850 5849 5849 5848 5848 5847 5847 5846 5845 5845 5844 5843 5843 5842 5840 5839 5839 5839 5838 5838 5837 5837 5836 5836 5836 5836 5836 5835 5835 5835 5835 5836 5836 5836 5836 5836 5836 5836 5836 5836 5837 5837 5837 5837 5837 5837 5836
5868 5868 5868 5867 5867 5867 5866 5866 5865 5864 5864 5863 5863 5862 5862 5862 5862 5862 5862 5862 5862 5862 5862 5861 5861 5861 5860 5859 5859 5858 5857 5856 5856 5854 5853 5852 5851 5851 5850 5849 5849 5848 5848 5847 5847 5846 5845 5845 5844 5843 5842 5841 5840 5839 5838 5838 5837 5837 5837 5837 5836 5836 5836 5836 5836 5835 5836 5836 5836 5836 5836 5836 5836 5836 5836 5836 5836 5837 5837 5837 5837 5837 5837 5837 5837
5867 5867 5867 5867 5866 5866 5865 5865 5864 5863 5863 5862 5862 5862 5862 5862 5862 5861 5861 5862 5862 5861 5861 5861 5861 5860 5860 5859 5858 5857 5857 5856 5855 5854 5853 5852 5851 5851 5850 5849 5849 5848 5848 5847 5847 5846 5845 5845 5844 5843 5842 5840 5839 5838 5838 5837 5837 5837 5837 5837 5836 5836 5836 5836 5835 5835 5835 5836 5836 5836 5836 5836 5836 5836 5836 5836 5837 5837 5837 5837 5837 5837 5837 5837 5837
5866 5866 5866 5866 5865 5865 5864 5863 5863 5862 5862 5862 5861 5861 5861 5861 5861 5861 5861 5861 5861 5861 5861 5861 5860 5860 5859 5859 5858 5857 5856 5855 5854 5853 5853 5852 5852 5851 5850 5850 5849 5848 5848 5847 5847 5846 5845 5844 5843 5842 5841 5840 5839 5838 5838 5838 5837 5837 5837 5837 5836 5836 5836 5836 5835 5835 5835 5836 5836 5836 5836 5836 5836 5836 5836 5837 5837 5838 5838 5838 5838 5838 5838 5838 5838
5865 5865 5864 5864 5863 5863 5863 5862 5862 5862 5861 5861 5861 5860 5860 5860 5860 5860 5860 5861 5861 5860 5860 5860 5860 5859 5859 5858 5857 5856 5856 5855 5854 5853 5853 5853 5852 5852 5851 5850 5849 5849 5848 5848 5847 5846 5845 5844 5843 5842 5841 5840 5839 5838 5838 5838 5838 5837 5837 5837 5836 5836 5836 5836 5835 5835 5836 5836 5836 5836 5836 5836 5837 5837 5837 5837 5838 5838 5838 5838 5838 5838 5838 5838 5838
5864 5863 5863 5862 5862 5861 5861 5861 5861 5860 5860 5860 5860 5859 5859 5859 5859 5859 5860 5860 5860 5860 5859 5859 5859 5859 5858 5857 5857 5856 5855 5854 5854 5853 5853 5853 5853 5852 5851 5851 5850 5849 5849 5848 5847 5846 5845 5844 5843 5841 5840 5839 5839 5839 5838 5838 5838 5838 5837 5837 5836 5836 5836 5836 5836 5836 5836 5836 5836 5836 5836 5837 5837 5837 5837 5837 5838 5838 5838 5838 5838 5838 5838 5838 5838
5862 5862 5861 5861 5860 5860 5859 5859 5859 5859 5859 5858 5858 5858 5858 5858 5858 5858 5859 5859 5859 5859 5859 5859 5859 5858 5857 5857 5856 5855 5854 5854 5854 5853 5853 5853 5853 5852 5852 5851 5850 5850 5849 5848 5847 5846 5845 5844 5842 5841 5840 5840 5839 5839 5839 5839 5838 5838 5838 5837 5837 5837 5837 5837 5836 5836 5836 5836 5836 5836 5836 5837 5837 5837 5837 5838 5838 5838 5838 5838 5838 5838 5838 5838 5838
5860 5860 5859 5859 5858 5858 5858 5858 5858 5857 5857 5857 5857 5857 5857 5857 5857 5858 5858 5858 5858 5858 5858 5858 5858 5857 5857 5856 5855 5855 5854 5854 5854 5854 5853 5853 5853 5853 5852 5852 5851 5850 5850 5849 5848 5846 5845 5844 5842 5841 5840 5840 5840 5840 5839 5839 5838 5838 5838 5838 5838 5837 5837 5837 5836 5836 5836 5836 5836 5836 5836 5837 5837 5837 5837 5838 5838 5838 5838 5838 5838 5838 5838 5838 5838
5858 5858 5858 5857 5857 5856 5856 5856 5856 5856 5856 5856 5856 5856 5856 5856 5857 5857 5857 5857 5857 5857 5857 5857 5857 5856 5856 5855 5855 5855 5854 5854 5854 5854 5853 5853 5853 5853 5852 5852 5851 5851 5850 5849 5848 5846 5845 5843 5842 5841 5841 5841 5841 5840 5839 5839 5839 5838 5838 5838 5838 5837 5837 5837 5836 5836 5836 5836 5836 5836 5836 5837 5837 5837 5837 5838 5838 5838 5838 5838 5838 5838 5838 5838 5838
5856 5856 5856 5855 5855 5855 5855 5854 5854 5854 5854 5854 5855 5855 5855 5855 5855 5855 5855 5855 5856 5856 5856 5856 5856 5856 5855 5855 5854 5854 5854 5854 5854 5853 5853 5852 5853 5853 5852 5852 5851 5851 5850 5849 5848 5846 5844 5843 5842 5842 5842 5841 5841 5840 5840 5839 5839 5839 5839 5838 5838 5837 5837 5837 5836 5836 5836 5836 5836 5836 5836 5837 5837 5837 5837 5838 5838 5838 5838 5838 5838 5838 5838 5838 5838
5854 5854 5854 5854 5853 5853 5853 5853 5853 5853 5853 5853 5853 5854 5854 5854 5854 5854 5854 5854 5855 5855 5855 5855 5855 5855 5855 5854 5854 5854 5854 5853 5853 5853 5852 5852 5852 5852 5852 5852 5851 5851 5850 5850 5849 5847 5844 5842 5842 5842 5842 5842 5841 5841 5840 5840 5840 5839 5839 5838 5838 5837 5837 5837 5836 5836 5836 5836 5836 5836 5836 5837 5837 5837 5837 5838 5838 5838 5838 5838 5838 5838 5838 5838 5838
5852 5852 5852 5852 5852 5851 5851 5851 5851 5851 5852 5852 5852 5852 5852 5853 5853 5853 5853 5854 5854 5854 5854 5854 5855 5854 5854 5854 5853 5853 5853 5853 5853 5852 5852 5851 5851 5852 5852 5851 5851 5851 5850 5850 5849 5847 5844 5842 5842 5842 5842 5842 5841 5840 5840 5840 5840 5839 5839 5838 5838 5838 5837 5837 5837 5837 5836 5836 5836 5836 5836 5837 5837 5837 5837 5838 5838 5838 5838 5838 5838 5838 5838 5838 5838
5850 5850 5850 5850 5850 5850 5850 5850 5850 5850 5850 5851 5851 5851 5851 5851 5851 5852 5852 5853 5853 5853 5853 5854 5854 5854 5853 5853 5852 5852 5852 5852 5852 5852 5851 5850 5851 5851 5851 5851 5851 5851 5850 5850 5849 5847 5845 5843 5843 5843 5842 5841 5841 5840 5840 5840 5840 5839 5839 5838 5838 5838 5838 5837 5837 5837 5837 5837 5837 5836 5836 5836 5837 5837 5837 5837 5837 5837 5837 5837 5837 5837 5837 5837 5837
5849 5849 5849 5849 5849 5848 5848 5848 5848 5849 5849 5849 5849 5849 5849 5850 5850 5851 5852 5852 5853 5853 5853 5853 5853 5852 5852 5852 5851 5851 5851 5851 5851 5851 5850 5849 5850 5850 5850 5850 5850 5850 5850 5850 5849 5847 5845 5844 5843 5843 5842 5841 5841 5840 5840 5840 5840 5839 5839 5839 5838 5838 5838 5838 5837 5837 5837 5837 5837 5836 5836 5836 5836 5836 5837 5837 5837 5837 5837 5837 5837 5837 5837 5837 5837
5847 5847 5847 5848 5847 5847 5847 5847 5847 5847 5848 5848 5848 5848 5848 5849 5850 5851 5851 5852 5852 5852 5852 5852 5851 5851 5851 5851 5850 5850 5850 5850 5850 5850 5849 5848 5849 5849 5849 5849 5850 5850 5850 5849 5849 5847 5845 5844 5844 5843 5842 5841 5841 5841 5840 5840 5840 5840 5839 5839 5839 5839 5838 5838 5838 5837 5837 5837 5836 5836 5836 5836 5836 5836 5836 5836 5836 5836 5836 5836 5836 5836 5836 5836 5836
5846 5846 5846 5846 5846 5846 5845 5846 5846 5846 5847 5847 5847 5847 5848 5849 5850 5850 5851 5851 5851 5851 5851 5850 5850 5850 5850 5850 5849 5849 5849 5849 5849 5849 5848 5847 5848 5848 5848 5848 5849 5849 5849 5849 5848 5847 5845 5844 5844 5843 5842 5842 5841 5841 5840 5840 5840 5839 5839 5840 5839 5839 5839 5838 5838 5837 5837 5837 5836 5836 5836 5836 5836 5836 5836 5836 5836 5836 5836 5836 5836 5836 5836 5836 5836
5844 5844 5844 5844 5844 5844 5844 5844 5845 5846 5846 5846 5846 5847 5848 5849 5849 5849 5850 5850 5850 5850 5849 5849 5849 5848 5848 5848 5848 5848 5848 5848 5847 5847 5847 5846 5846 5846 5846 5847 5847 5847 5848 5848 5848 5847 5846 5845 5844 5843 5842 5841 5842 5841 5840 5839 5839 5839 5839 5839 5839 5839 5839 5838 5838 5837 5837 5837 5836 5836 5836 5836 5836 5836 5836 5836 5836 5835 5835 5835 5835 5835 5835 5835 5835
5842 5842 5842 5842 5842 5842 5843 5843 5844 5845 5845 5845 5845 5846 5847 5847 5848 5848 5848 5848 5848 5848 5848 5847 5847 5847 5847 5847 5847 5847 5846 5846 5846 5846 5845 5845 5845 5845 5845 5845 5846 5846 5846 5847 5846 5846 5846 5845 5843 5842 5841 5841 5842 5841 5840 5839 5839 5839 5839 5839 5839 5839 5839 5838 5838 5837 5837 5837 5836 5836 5836 5836 5836 5836 5835 5835 5835 5835 5835 5835 5835 5835 5835 5835 5835
5840 5840 5840 5840 5840 5840 5841 5842 5842 5843 5843 5843 5844 5845 5845 5846 5846 5846 5847 5847 5847 5846 5846 5846 5845 5845 5845 5845 5845 5845 5845 5845 5844 5844 5844 5844 5843 5843 5843 5844 5844 5844 5845 5845 5845 5845 5846 5845 5843 5841 5840 5841 5841 5841 5840 5839 5839 5839 5839 5839 5839 5838 5838 5838 5838 5837 5837 5837 5836 5836 5836 5836 5835 5835 5835 5835 5835 5835 5834 5834 5834 5834 5834 5834 5834
5839 5839 5838 5838 5838 5838 5838 5839 5840 5840 5841 5841 5842 5843 5843 5844 5844 5844 5845 5845 5845 5845 5845 5844 5844 5843 5844 5844 5843 5843 5843 5843 5843 5843 5843 5843 5842 5842 5842 5842 5842 5843 5843 5844 5844 5844 5845 5845 5842 5840 5840 5840 5841 5840 5840 5839 5839 5839 5839 5838 5838 5838 5837 5837 5837 5837 5837 5836 5836 5836 5836 5836 5835 5835 5834 5834 5834 5834 5834 5834 5833 5833 5833 5833 5833
5837 5837 5836 5835 5835 5835 5835 5836 5836 5837 5838 5839 5840 5840 5841 5841 5842 5842 5843 5843 5844 5844 5843 5843 5842 5842 5842 5842 5842 5842 5842 5842 5841 5842 5842 5842 5841 5841 5840 5840 5841 5841 5842 5842 5842 5843 5844 5845 5842 5840 5839 5840 5840 5840 5839 5839 5839 5839 5839 5838 5837 5837 5837 5836 5836 5836 5836 5836 5836 5836 5835 5835 5835 5835 5834 5834 5834 5833 5833 5833 5833 5832 5832 5832 5832
5834 5834 5833 5832 5831 5831 5831 5832 5832 5834 5835 5836 5837 5837 5838 5839 5839 5840 5841 5841 5842 5842 5841 5841 5840 5840 5840 5840 5840 5840 5840 5839 5839 5840 5840 5840 5840 5840 5839 5839 5839 5840 5840 5840 5841 5841 5843 5844 5842 5840 5838 5839 5840 5840 5839 5839 5838 5838 5838 5838 5837 5836 5836 5836 5836 5836 5836 5835 5835 5835 5835 5835 5834 5834 5834 5834 5833 5833 5832 5832 5832 5832 5832 5832 5832
5831 5831 5830 5829 5829 5828 5828 5828 5829 5831 5832 5833 5834 5835 5835 5836 5838 5838 5839 5839 5840 5840 5839 5839 5838 5838 5838 5838 5838 5839 5838 5837 5837 5838 5839 5839 5839 5838 5838 5837 5838 5838 5839 5839 5839 5840 5841 5842 5842 5840 5839 5838 5839 5840 5839 5838 5838 5838 5837 5837 5836 5836 5836 5836 5835 5835 5835 5835 5835 5834 5834 5834 5834 5833 5833 5833 5833 5832 5832 5831 5831 5831 5831 5831 5831
5829 5829 5827 5827 5826 5826 5826 5827 5828 5829 5830 5831 5832 5833 5833 5835 5836 5836 5837 5837 5837 5837 5836 5836 5835 5835 5835 5836 5836 5836 5836 5835 5835 5836 5837 5837 5837 5837 5836 5836 5837 5837 5838 5838 5837 5838 5839 5841 5841 5840 5839 5838 5838 5839 5839 5837 5837 5837 5837 5836 5836 5836 5835 5835 5835 5835 5835 5835 5834 5834 5834 5834 5833 5833 5832 5832 5832 5831 5831 5830 5830 5830 5830 5830 5830
5826 5825 5824 5824 5824 5826 5826 5826 5827 5828 5828 5829 5830 5831 5832 5832 5833 5834 5834 5834 5834 5834 5834 5833 5833 5833 5833 5833 5834 5834 5833 5833 5833 5834 5835 5835 5835 5835 5835 5835 5835 5836 5836 5836 5836 5836 5838 5839 5839 5839 5838 5838 5838 5838 5838 5837 5836 5836 5836 5836 5835 5835 5835 5835 5834 5834 5834 5834 5834 5834 5833 5833 5833 5832 5832 5831 5831 5830 5830 5829 5829 5829 5829 5829 5829
5822 5824 5823 5824 5826 5826 5826 5825 5826 5826 5827 5827 5828 5829 5829 5830 5830 5831 5831 5832 5832 5832 5831 5830 5830 5830 5831 5831 5831 5831 5831 5831 5831 5832 5833 5834 5834 5834 5834 5834 5834 5835 5835 5835 5834 5834 5836 5837 5838 5838 5837 5837 5837 5837 5837 5836 5835 5835 5835 5835 5835 5835 5834 5834 5834 5834 5833 5833 5833 5833 5832 5832 5831 5831 5830 5830 5830 5829 5829 5828 5828 5827 5827 5827 5827
5819 5824 5824 5825 5827 5826 5825 5825 5824 5824 5825 5825 5825 5826 5826 5827 5828 5828 5829 5829 5829 5829 5829 5828 5828 5828 5828 5828 5829 5829 5828 5829 5829 5830 5831 5832 5832 5832 5832 5832 5833 5834 5834 5833 5832 5833 5834 5835 5836 5836 5836 5836 5836 5837 5836 5835 5835 5835 5834 5834 5834 5834 5834 5833 5833 5833 5833 5833 5832 5832 5831 5831 5830 5830 5829 5829 5828 5828 5827 5827 5827 5826 5826 5826 5826
5816 5819 5821 5822 5823 5822 5821 5822 5821 5821 5822 5822 5823 5824 5824 5825 5826 5827 5827 5828 5828 5827 5826 5826 5826 5826 5826 5826 5827 5827 5826 5827 5828 5828 5829 5829 5830 5830 5831 5831 5832 5832 5832 5832 5831 5831 5832 5833 5833 5835 5835 5835 5835 5835 5835 5835 5834 5834 5834 5834 5834 5834 5833 5833 5832 5832 5832 5832 5831 5831 5830 5830 5829 5828 5828 5827 5827 5826 5826 5825 5825 5825 5825 5825 5825
5814 5814 5816 5817 5818 5818 5817 5818 5818 5818 5819 5820 5821 5822 5822 5823 5824 5825 5825 5826 5826 5826 5825 5824 5824 5824 5824 5824 5825 5825 5825 5826 5826 5826 5826 5827 5828 5828 5829 5830 5830 5831 5831 5830 5830 5830 5831 5831 5831 5833 5833 5833 5834 5834 5834 5834 5834 5834 5834 5834 5834 5833 5833 5832 5832 5831 5831 5830 5830 5829 5829 5828 5827 5827 5826 5826 5825 5825 5824 5824 5823 5823 5823 5823 5824
5812 5810 5811 5812 5813 5813 5814 5815 5816 5817 5817 5817 5818 5818 5819 5820 5821 5822 5822 5823 5824 5824 5823 5823 5823 5823 5822 5822 5823 5823 5824 5824 5825 5825 5825 5826 5826 5827 5828 5829 5829 5829 5829 5829 5829 5829 5829 5829 5829 5831 5832 5832 5833 5833 5833 5833 5833 5833 5833 5833 5833 5833 5832 5832 5831 5830 5830 5829 5828 5828 5827 5826 5826 5825 5825 5824 5824 5823 5822 5822 5821 5821 5822 5822 5822
5808 5806 5805 5807 5808 5809 5810 5812 5814 5814 5815 5815 5816 5816 5816 5816 5817 5819 5820 5820 5821 5821 5820 5821 5821 5821 5820 5820 5820 5821 5822 5822 5823 5823 5824 5824 5825 5826 5826 5827 5827 5827 5827 5827 5828 5827 5827 5827 5828 5829 5830 5831 5832 5832 5832 5832 5832 5832 5832 5832 5832 5832 5832 5831 5830 5829 5828 5828 5827 5827 5826 5825 5824 5824 5824 5823 5822 5822 5821 5820 5820 5820 5820 5820 5821
5806 5804 5802 5804 5806 5806 5807 5809 5811 5811 5812 5813 5814 5814 5814 5814 5816 5817 5818 5818 5819 5818 5818 5818 5819 5819 5819 5819 5819 5819 5820 5820 5820 5821 5822 5823 5823 5824 5825 5825 5825 5825 5826 5826 5827 5827 5826 5826 5827 5827 5828 5829 5830 5831 5831 5831 5831 5831 5832 5832 5832 5832 5831 5830 5829 5828 5827 5827 5826 5826 5825 5824 5824 5823 5823 5822 5821 5820 5820 5819 5819 5819 5819 5819 5820
5807 5805 5804 5805 5806 5806 5806 5807 5809 5809 5809 5811 5811 5811 5812 5813 5814 5814 5814 5815 5817 5816 5816 5816 5817 5817 5818 5818 5817 5817 5818 5818 5818 5819 5820 5820 5822 5822 5823 5823 5823 5824 5824 5825 5825 5826 5825 5825 5825 5826 5827 5828 5829 5829 5830 5830 5830 5831 5831 5831 5831 5831 5830 5829 5829 5828 5827 5826 5826 5825 5824 5824 5823 5822 5822 5821 5820 5819 5819 5818 5818 5818 5818 5818 5818
5808 5805 5805 5806 5806 5805 5805 5805 5807 5807 5807 5808 5808 5809 5809 5810 5811 5811 5811 5812 5814 5814 5814 5814 5814 5815 5816 5816 5815 5815 5815 5816 5816 5817 5818 5819 5820 5821 5821 5821 5821 5822 5823 5824 5824 5824 5824 5824 5824 5825 5825 5826 5827 5828 5829 5829 5830 5830 5830 5830 5830 5830 5829 5829 5828 5827 5826 5826 5825 5825 5824 5823 5823 5822 5821 5820 5820 5819 5818 5818 5817 5817 5817 5817 5817
5806 5805 5805 5805 5804 5804 5803 5803 5804 5804 5805 5806 5806 5807 5807 5808 5808 5808 5808 5810 5811 5811 5812 5812 5812 5812 5813 5813 5813 5813 5813 5814 5815 5816 5817 5818 5819 5819 5819 5819 5820 5821 5822 5822 5822 5823 5823 5823 5823 5824 5824 5825 5825 5826 5827 5828 5829 5829 5829 5829 5829 5829 5829 5828 5827 5826 5826 5825 5825 5824 5824 5823 5823 5822 5821 5820 5819 5818 5818 5817 5817 5816 5816 5816 5817
5803 5803 5803 5803 5802 5802 5802 5802 5802 5801 5802 5804 5805 5805 5806 5806 5805 5805 5806 5808 5809 5809 5810 5810 5809 5809 5810 5811 5812 5811 5811 5812 5812 5814 5815 5816 5817 5817 5817 5817 5818 5819 5820 5820 5820 5821 5822 5822 5822 5822 5823 5824 5824 5825 5826 5827 5828 5828 5828 5828 5828 5828 5828 5827 5827 5826 5825 5824 5824 5823 5823 5823 5822 5822 5821 5820 5819 5818 5817 5817 5816 5816 5816 5816 5817
5800 5800 5800 5800 5799 5799 5800 5800 5800 5800 5801 5802 5803 5803 5804 5803 5803 5803 5804 5805 5806 5807 5807 5807 5806 5807 5808 5809 5809 5809 5810 5810 5811 5812 5813 5815 5816 5816 5815 5816 5817 5818 5818 5818 5818 5819 5820 5820 5821 5821 5822 5822 5823 5824 5825 5825 5826 5827 5827 5827 5827 5827 5827 5827 5826 5825 5824 5824 5823 5823 5823 5822 5822 5821 5821 5820 5819 5818 5817 5817 5816 5816 5816 5816 5817
5797 5797 5797 5797 5797 5797 5798 5798 5798 5799 5800 5799 5799 5801 5801 5800 5800 5801 5802 5803 5803 5804 5804 5803 5803 5804 5806 5807 5807 5808 5808 5808 5809 5810 5812 5813 5814 5814 5814 5814 5815 5816 5817 5817 5817 5818 5819 5819 5820 5820 5821 5821 5822 5822 5823 5824 5825 5825 5826 5826 5826 5826 5826 5826 5825 5824 5824 5823 5823 5822 5822 5822 5821 5821 5820 5820 5819 5818 5817 5817 5816 5816 5817 5817 5816
5795 5795 5795 5795 5794 5794 5795 5795 5796 5797 5797 5797 5797 5798 5798 5798 5797 5798 5800 5801 5802 5802 5801 5800 5800 5802 5805 5806 5806 5806 5806 5807 5807 5808 5810 5811 5812 5812 5812 5813 5814 5815 5815 5816 5816 5817 5817 5818 5818 5819 5819 5820 5820 5821 5822 5823 5823 5824 5824 5825 5825 5825 5825 5824 5824 5823 5823 5823 5822 5822 5821 5821 5821 5820 5820 5819 5819 5818 5817 5817 5816 5816 5817 5816 5816
5794 5794 5793 5793 5793 5793 5792 5793 5793 5795 5795 5795 5795 5796 5796 5796 5795 5794 5796 5798 5799 5799 5799 5798 5798 5801 5803 5803 5802 5803 5804 5804 5805 5807 5808 5808 5810 5811 5811 5811 5812 5813 5814 5814 5815 5815 5816 5817 5817 5818 5818 5818 5819 5820 5821 5821 5822 5823 5823 5823 5823 5823 5824 5823 5823 5822 5822 5822 5821 5821 5820 5820 5820 5820 5819 5819 5818 5817 5817 5816 5816 5816 5816 5816 5816
5792 5791 5791 5791 5792 5792 5791 5791 5792 5792 5794 5794 5794 5794 5795 5795 5794 5791 5792 5794 5795 5796 5796 5795 5797 5799 5800 5800 5800 5801 5801 5801 5802 5804 5806 5806 5807 5809 5809 5809 5810 5811 5812 5812 5813 5814 5814 5815 5816 5816 5817 5817 5818 5819 5819 5820 5821 5822 5822 5822 5822 5822 5822 5822 5822 5822 5822 5821 5821 5820 5820 5819 5819 5819 5819 5818 5818 5817 5817 5816 5816 5816 5816 5816 5816
5790 5789 5789 5789 5790 5790 5790 5790 5790 5791 5793 5794 5793 5793 5793 5793 5792 5790 5790 5791 5792 5793 5793 5793 5796 5798 5798 5798 5799 5800 5800 5800 5800 5801 5803 5804 5805 5806 5807 5807 5808 5809 5810 5811 5811 5812 5813 5813 5814 5815 5815 5816 5817 5817 5818 5819 5820 5821 5821 5821 5821 5821 5821 5821 5821 5821 5821 5821 5820 5819 5819 5818 5818 5818 5818 5818 5817 5817 5816 5816 5816 5816 5816 5816 5816
5787 5787 5787 5787 5787 5788 5788 5789 5789 5790 5791 5793 5792 5792 5791 5791 5790 5789 5788 5788 5789 5789 5789 5792 5795 5796 5796 5796 5797 5797 5798 5798 5799 5799 5800 5801 5802 5804 5805 5805 5806 5806 5808 5809 5810 5810 5811 5812 5813 5813 5814 5814 5815 5816 5817 5818 5819 5820 5820 5820 5820 5820 5820 5820 5820 5820 5820 5820 5819 5819 5818 5818 5818 5818 5817 5817 5817 5817 5816 5816 5816 5816 5817 5817 5817
5785 5785 5785 5785 5786 5786 5786 5787 5787 5787 5788 5790 5790 5790 5790 5788 5787 5787 5786 5786 5786 5786 5788 5791 5792 5792 5793 5794 5794 5795 5796 5796 5797 5797 5798 5799 5801 5802 5803 5803 5804 5804 5805 5807 5808 5809 5809 5810 5811 5812 5813 5813 5814 5815 5816 5817 5818 5818 5818 5818 5818 5818 5818 5818 5818 5818 5819 5819 5818 5818 5817 5817 5817 5817 5816 5816 5816 5816 5816 5816 5816 5816 5817 5817 5817
5784 5784 5784 5784 5784 5784 5784 5784 5784 5785 5786 5787 5788 5788 5788 5787 5786 5785 5785 5784 5784 5785 5787 5788 5789 5790 5792 5793 5792 5793 5794 5794 5795 5796 5797 5798 5799 5800 5801 5801 5802 5802 5803 5804 5806 5806 5807 5808 5809 5810 5811 5812 5813 5813 5814 5815 5816 5817 5817 5817 5817 5817 5817 5817 5817 5817 5817 5817 5817 5816 5816 5816 5816 5816 5815 5815 5816 5816 5816 5816 5816 5816 5816 5816 5817
5783 5783 5782 5782 5782 5782 5782 5782 5782 5783 5783 5784 5785 5786 5785 5785 5786 5786 5785 5783 5781 5782 5784 5785 5787 5789 5791 5791 5791 5792 5793 5793 5793 5795 5796 5797 5797 5798 5798 5799 5800 5800 5801 5802 5803 5804 5805 5806 5808 5809 5810 5810 5811 5812 5813 5814 5815 5815 5816 5816 5816 5816 5816 5816 5816 5816 5816 5816 5815 5815 5815 5814 5814 5814 5814 5814 5815 5815 5815 5815 5815 5815 5815 5815 5816
5780 5780 5780 5780 5780 5780 5780 5780 5780 5781 5781 5782 5782 5783 5783 5784 5785 5786 5785 5782 5780 5781 5783 5783 5786 5787 5788 5789 5790 5791 5792 5792 5793 5793 5794 5795 5795 5796 5796 5797 5798 5799 5799 5800 5801 5802 5803 5804 5806 5807 5808 5809 5809 5811 5812 5812 5813 5814 5814 5814 5814 5814 5814 5815 5815 5815 5815 5814 5814 5813 5813 5813 5813 5813 5812 5813 5814 5814 5814 5814 5814 5814 5814 5814 5815
5779 5778 5778 5778 5778 5778 5779 5778 5778 5778 5779 5780 5780 5780 5780 5781 5783 5784 5784 5783 5782 5782 5782 5783 5784 5784 5786 5787 5788 5788 5790 5791 5791 5791 5792 5793 5793 5794 5795 5796 5797 5797 5797 5798 5799 5800 5801 5803 5804 5805 5806 5807 5808 5809 5810 5811 5812 5812 5813 5813 5813 5813 5813 5813 5814 5814 5813 5813 5813 5812 5812 5812 5812 5811 5811 5812 5812 5813 5813 5813 5813 5814 5814 5814 5814
5777 5776 5776 5776 5776 5776 5777 5777 5777 5777 5777 5777 5777 5778 5778 5778 5780 5781 5782 5783 5783 5781 5781 5782 5782 5782 5783 5784 5785 5786 5786 5787 5788 5789 5790 5791 5792 5793 5794 5795 5796 5796 5796 5796 5797 5798 5799 5801 5802 5803 5804 5805 5806 5807 5808 5809 5810 5810 5811 5811 5811 5812 5812 5812 5812 5812 5812 5811 5811 5811 5811 5811 5811 5810 5810 5810 5811 5811 5812 5812 5813 5813 5813 5813 5814
5774 5773 5773 5773 5773 5774 5775 5775 5776 5777 5777 5776 5775 5775 5776 5776 5777 5778 5780 5781 5781 5780 5780 5780 5780 5781 5782 5782 5783 5783 5784 5784 5785 5787 5788 5789 5790 5791 5792 5794 5795 5795 5794 5794 5795 5796 5798 5799 5800 5801 5802 5803 5804 5805 5805 5806 5807 5808 5809 5809 5810 5810 5811 5811 5811 5811 5810 5810 5809 5809 5809 5810 5810 5809 5809 5809 5810 5810 5810 5811 5811 5812 5812 5812 5813
5772 5770 5771 5771 5771 5771 5772 5773 5774 5775 5776 5776 5774 5773 5773 5773 5774 5776 5777 5778 5779 5779 5779 5778 5779 5780 5780 5781 5781 5782 5782 5783 5783 5785 5786 5787 5788 5789 5790 5792 5793 5793 5793 5793 5793 5795 5796 5797 5798 5799 5800 5801 5802 5802 5803 5804 5805 5806 5807 5807 5808 5809 5809 5810 5810 5809 5809 5808 5808 5808 5808 5808 5808 5808 5808 5808 5808 5809 5809 5810 5810 5810 5811 5811 5811